Wind_Speed
20 19 21 22 22 23 24 24 24 24 25 23 23 24 25 25 25 25 25 25 24 24 24 24 24 24 24 24 24 23 24 23 23 23 23 23 22 21 21 22 22 21 21 22
21 20 21 22 22 23 24 25 25 26 26 25 24 25 25 25 25 25 25 25 24 24 24 24 23 23 24 24 24 24 24 24 24 24 22 22 21 21 21 22 21 21 20 21
20 21 23 23 22 23 23 24 25 26 26 25 26 26 26 27 27 26 26 26 26 26 25 25 25 24 23 24 24 24 23 23 22 23 23 22 22 21 21 21 21 21 21 21
21 21 23 21 21 22 23 24 25 26 26 27 27 27 28 28 28 27 26 26 26 26 26 26 25 25 24 24 23 23 23 22 22 22 22 22 22 22 22 22 21 21 21 21
22 23 24 22 22 23 23 23 25 26 27 27 28 28 28 28 29 28 27 27 27 26 26 26 25 25 25 24 24 24 23 23 23 23 23 23 23 23 23 22 22 22 21 21
21 23 24 23 24 24 24 25 25 26 27 28 28 29 28 28 29 28 27 27 28 28 27 27 26 26 26 26 25 24 24 24 24 23 23 23 23 23 23 23 23 22 22 23
22 23 23 23 24 25 25 26 26 25 26 27 28 30 30 29 29 29 28 28 29 29 28 28 27 27 27 27 26 26 25 26 26 25 24 24 25 24 24 24 24 23 24 24
22 24 24 24 25 25 25 26 26 26 26 27 28 29 29 29 29 29 29 28 29 29 29 28 28 28 28 27 27 27 27 27 27 26 26 26 26 26 26 25 25 25 24 25
23 24 25 25 26 26 26 27 27 27 27 27 28 28 28 28 28 28 29 29 29 29 30 29 29 29 29 28 27 28 28 27 27 27 27 27 27 27 27 26 26 26 26 26
24 24 25 26 26 27 27 27 27 28 28 28 29 29 29 29 29 29 29 29 29 29 30 30 29 29 29 29 29 28 28 29 30 29 29 29 29 29 29 28 28 28 28 27
26 26 26 27 27 27 27 26 27 28 29 29 30 30 29 29 29 29 29 29 29 29 30 30 29 30 30 30 30 30 30 30 31 31 31 31 31 30 29 29 29 29 29 29
25 27 27 27 28 28 28 27 27 28 28 28 29 29 29 29 29 29 30 29 30 30 30 30 30 30 29 29 30 30 30 31 31 32 32 31 30 30 30 30 30 30 29 29
26 27 28 28 28 28 28 28 28 28 28 28 28 29 29 29 29 29 30 30 30 31 31 31 30 30 29 29 29 30 30 31 31 31 31 31 31 31 31 31 30 30 30 30
26 27 28 28 28 28 28 28 28 28 28 28 29 29 29 29 29 30 30 30 30 31 30 30 30 29 29 30 30 31 31 31 31 32 32 32 31 31 31 30 31 31 31 31
26 27 28 28 28 28 28 28 28 28 29 29 29 29 30 30 30 29 29 30 30 31 30 30 29 29 30 30 31 31 31 31 32 32 32 31 31 31 32 32 32 32 32 32
27 28 28 28 28 28 28 28 28 29 29 29 29 29 30 29 29 29 29 29 30 29 29 29 29 29 29 29 30 30 31 31 32 32 33 32 32 33 33 33 33 33 32 32
28 29 29 29 29 29 29 28 28 28 29 30 29 29 29 29 28 28 28 29 29 29 28 29 29 29 28 28 29 29 30 30 31 32 33 33 33 33 33 33 33 33 32 32
29 28 28 28 29 29 29 29 29 29 29 30 29 28 27 27 27 28 28 28 29 29 29 29 29 29 29 29 29 29 29 29 30 31 32 32 32 32 32 32 32 32 32 31
29 28 28 28 29 29 29 29 29 29 29 28 27 27 27 27 27 27 27 27 28 28 28 29 30 30 29 29 29 29 29 29 29 29 30 30 31 32 32 32 31 31 31 31
28 28 28 28 28 28 28 28 28 28 28 27 26 26 26 26 26 26 26 27 28 28 29 29 29 29 30 30 30 29 29 29 30 29 30 30 31 32 32 32 32 32 31 31
29 29 29 29 28 28 28 28 27 27 27 26 26 26 26 26 26 26 26 26 27 28 29 29 29 29 29 29 29 29 28 29 29 30 30 31 31 31 32 32 33 33 33 33
29 29 29 29 28 28 27 27 26 26 26 25 25 26 26 26 26 26 26 27 27 28 29 29 29 29 28 28 28 28 29 29 30 30 30 30 31 32 32 32 33 33 33 33
29 29 29 29 29 28 27 27 26 26 25 25 26 26 26 26 26 26 26 26 28 29 29 29 29 29 29 28 28 28 29 29 30 30 30 30 30 31 31 32 32 33 34 34
29 29 29 29 29 28 27 27 27 26 26 26 26 27 27 27 27 27 27 27 27 28 28 29 29 29 29 29 29 29 29 29 29 30 30 30 31 31 31 31 32 33 33 33
29 29 29 29 28 27 27 27 27 27 27 27 27 27 27 27 27 27 27 27 27 27 27 27 28 29 29 29 28 28 28 29 29 29 30 30 30 30 31 31 32 32 32 33
28 28 28 28 28 27 27 27 27 27 27 28 28 28 28 28 28 28 28 27 27 27 27 28 28 27 27 28 28 28 29 30 30 30 31 31 31 31 31 31 31 31 31 32
28 29 29 28 28 28 28 28 28 28 28 28 28 28 29 30 30 30 29 28 28 28 28 28 28 28 28 28 28 28 29 30 30 31 31 31 31 32 32 31 31 30 30 30
Wind_Direction
260 261 264 264 265 263 261 259 259 260 260 264 266 269 273 273 273 275 274 273 271 271 270 272 272 272 273 274 274 274 274 274 275 274 272 270 268 267 267 268 270 272 271 271
262 261 261 264 264 263 263 261 261 262 263 265 265 267 269 271 273 275 273 272 270 268 268 269 272 272 272 274 273 274 274 273 273 273 271 268 266 266 267 267 270 270 270 269
267 267 265 266 269 267 265 265 264 264 265 266 265 267 268 269 272 275 273 271 270 270 269 270 273 273 270 270 271 272 272 273 273 271 268 266 266 266 266 268 270 268 268 268
270 270 269 272 271 270 268 267 267 266 265 265 265 266 267 269 271 271 271 270 270 271 270 271 272 272 272 270 270 270 269 270 272 271 267 265 265 265 265 267 269 267 269 269
272 272 272 270 271 271 270 269 269 269 268 267 267 267 267 269 271 271 270 270 270 270 270 272 271 271 271 270 271 271 269 270 270 269 269 266 264 265 265 267 268 267 268 270
277 275 272 274 273 274 274 273 272 272 271 271 269 268 268 269 269 271 271 271 270 269 269 270 269 269 270 271 271 270 269 269 268 268 268 267 265 265 266 267 268 268 269 271
275 275 275 276 275 276 275 276 275 274 274 272 271 270 270 269 269 270 271 270 269 269 268 268 268 267 268 269 268 268 269 269 268 267 267 267 266 266 267 268 266 267 269 272
279 276 277 277 278 277 276 275 276 275 274 272 272 273 272 270 270 270 271 269 268 268 268 268 267 266 266 267 267 266 267 268 267 266 266 267 267 268 268 268 267 267 269 272
279 279 278 279 278 279 278 278 278 277 276 275 275 275 274 273 272 271 271 271 269 268 268 268 266 266 265 265 266 266 267 266 265 266 265 266 267 268 267 266 268 269 270 271
278 278 277 278 278 279 280 280 279 279 278 278 278 278 276 276 274 271 271 272 272 271 269 269 267 266 266 265 265 266 266 266 265 266 265 265 266 267 267 267 268 270 272 273
278 278 278 276 278 278 279 280 280 279 278 277 277 278 276 276 275 273 272 272 271 272 271 270 269 266 266 266 265 266 267 267 267 266 266 265 265 267 268 267 267 269 271 273
279 279 279 277 276 279 280 281 281 280 279 278 277 277 275 275 276 276 274 273 272 271 271 270 269 268 266 265 265 265 266 267 267 266 265 266 265 265 266 267 269 271 271 273
279 279 279 279 278 280 280 281 282 281 280 279 278 277 276 275 276 275 275 274 273 272 272 270 269 268 266 265 266 266 266 267 266 265 265 265 264 264 265 266 268 270 272 273
279 279 280 281 279 279 279 280 281 281 280 279 279 278 277 276 275 274 275 275 274 274 273 271 269 268 267 267 267 268 267 267 267 266 266 265 265 265 266 267 269 271 272 274
281 281 282 282 282 281 280 279 280 280 280 279 279 279 278 276 275 274 274 274 274 273 272 272 271 270 269 269 269 269 267 267 267 266 267 266 265 265 266 267 269 271 272 273
282 283 284 283 283 283 282 281 280 280 281 280 280 280 278 276 274 273 273 273 273 272 271 272 272 272 271 270 270 269 268 268 267 267 266 266 265 265 266 267 269 270 272 273
283 284 285 285 284 283 281 281 280 280 282 283 281 281 279 278 277 276 275 275 274 272 270 271 272 272 271 270 271 271 270 270 269 268 267 266 265 265 267 268 269 270 271 272
283 284 286 286 284 283 282 281 281 281 281 282 282 282 280 279 279 278 276 275 274 272 271 271 273 272 271 270 270 271 271 271 270 269 267 267 266 266 267 269 269 270 272 273
284 285 286 286 285 283 282 282 281 282 283 283 282 281 280 280 283 281 279 277 276 273 272 272 272 271 271 271 270 270 270 270 271 270 269 269 268 268 268 268 269 271 272 273
283 284 285 285 284 283 282 282 282 283 283 283 284 284 282 282 283 283 281 279 278 275 275 275 274 272 271 270 270 270 270 270 270 271 270 269 269 268 268 269 270 272 273 274
282 283 285 284 283 282 282 282 282 282 282 283 284 285 284 283 282 282 282 280 280 278 276 276 275 272 271 271 271 271 270 270 270 272 272 270 269 269 269 270 271 272 273 274
281 282 283 283 282 283 283 282 282 281 280 281 283 284 284 284 284 284 283 281 280 278 276 275 275 274 273 273 272 270 269 270 271 273 273 272 270 269 269 269 271 273 274 274
282 282 283 282 283 282 283 282 282 283 283 282 283 285 287 287 288 288 287 284 282 279 278 277 276 276 275 275 273 271 270 270 272 273 272 271 271 271 271 271 273 274 274 275
283 282 282 283 283 283 283 283 283 284 284 284 284 285 286 287 288 289 288 287 285 282 280 279 279 279 277 276 274 272 272 273 274 274 274 273 273 273 272 273 274 274 275 275
282 283 283 284 284 283 282 282 282 283 285 285 285 285 286 287 288 288 288 287 285 283 281 280 280 278 276 275 275 274 274 275 276 276 276 276 275 274 274 274 274 274 276 276
283 283 283 283 283 282 282 281 281 283 284 285 285 285 285 286 287 287 287 287 285 283 282 281 280 279 277 277 277 277 277 276 275 275 275 276 277 276 275 274 275 275 276 276
283 283 283 282 282 282 282 282 282 283 284 285 285 284 284 285 286 287 287 287 286 284 283 282 281 280 279 278 277 278 278 277 276 276 275 276 276 276 275 275 276 276 275 275
Height
5755 5756 5757 5757 5758 5759 5760 5761 5762 5763 5763 5764 5763 5762 5762 5762 5762 5762 5762 5761 5761 5761 5761 5761 5760 5760 5760 5760 5759 5759 5759 5759 5759 5759 5760 5760 5761 5761 5762 5762 5762 5762 5763 5764
5750 5751 5751 5751 5752 5753 5754 5754 5755 5756 5757 5757 5756 5756 5756 5755 5755 5755 5755 5755 5755 5755 5754 5754 5753 5753 5753 5753 5753 5752 5752 5752 5752 5753 5753 5753 5754 5755 5755 5756 5755 5756 5757 5758
5744 5744 5744 5745 5746 5746 5747 5748 5748 5748 5750 5749 5749 5749 5749 5748 5748 5748 5748 5748 5748 5748 5747 5747 5746 5746 5746 5746 5746 5746 5745 5746 5745 5746 5746 5747 5748 5749 5749 5750 5750 5751 5751 5751
5738 5738 5738 5742 5740 5740 5740 5740 5741 5741 5741 5741 5741 5742 5742 5741 5741 5741 5741 5741 5741 5740 5740 5739 5739 5739 5739 5739 5739 5739 5739 5739 5739 5739 5740 5741 5741 5742 5742 5743 5743 5744 5744 5745
5732 5731 5732 5734 5733 5733 5733 5734 5734 5734 5733 5733 5733 5734 5734 5734 5734 5734 5734 5734 5733 5733 5733 5732 5732 5732 5732 5732 5732 5732 5732 5733 5733 5733 5734 5734 5734 5735 5736 5736 5737 5738 5738 5739
5726 5725 5725 5728 5727 5726 5728 5727 5726 5726 5726 5725 5725 5725 5726 5726 5726 5726 5726 5726 5725 5725 5725 5725 5725 5725 5725 5725 5725 5725 5726 5726 5726 5727 5727 5727 5728 5729 5729 5730 5731 5731 5732 5732
5720 5719 5719 5721 5720 5720 5721 5720 5718 5718 5717 5717 5717 5717 5718 5717 5717 5717 5717 5717 5717 5717 5717 5717 5717 5717 5717 5718 5718 5718 5719 5719 5719 5720 5721 5721 5721 5722 5723 5723 5724 5724 5725 5725
5714 5713 5716 5714 5713 5714 5713 5711 5711 5710 5709 5709 5709 5708 5708 5708 5708 5709 5708 5708 5709 5709 5709 5709 5709 5709 5709 5710 5710 5710 5711 5711 5712 5713 5713 5714 5715 5715 5715 5716 5717 5717 5718 5718
5708 5709 5707 5706 5706 5705 5704 5704 5703 5702 5702 5702 5701 5701 5700 5700 5700 5700 5700 5700 5700 5700 5700 5701 5701 5701 5701 5702 5702 5702 5703 5703 5704 5705 5706 5706 5707 5708 5708 5708 5709 5710 5710 5710
5701 5701 5700 5699 5698 5697 5697 5696 5696 5695 5695 5694 5693 5693 5692 5692 5691 5691 5691 5691 5691 5691 5691 5692 5692 5692 5692 5693 5694 5694 5695 5695 5696 5697 5698 5699 5699 5700 5700 5701 5701 5702 5702 5702
5694 5694 5693 5692 5691 5689 5689 5689 5688 5687 5687 5686 5685 5684 5684 5683 5683 5682 5683 5683 5683 5682 5682 5683 5682 5683 5683 5684 5684 5685 5686 5687 5687 5688 5689 5690 5691 5692 5692 5692 5693 5694 5694 5694
5687 5686 5685 5684 5683 5682 5681 5681 5680 5679 5678 5677 5676 5676 5675 5675 5674 5674 5673 5673 5673 5673 5673 5673 5673 5674 5674 5675 5675 5676 5677 5678 5678 5679 5680 5681 5682 5683 5683 5684 5685 5685 5685 5685
5679 5678 5677 5676 5675 5674 5673 5673 5672 5671 5670 5669 5668 5667 5666 5666 5665 5665 5664 5664 5664 5664 5664 5664 5664 5665 5665 5665 5666 5667 5668 5668 5669 5670 5670 5671 5672 5673 5674 5675 5675 5676 5676 5676
5671 5670 5669 5668 5667 5666 5665 5664 5663 5662 5661 5660 5659 5658 5657 5657 5656 5656 5655 5655 5654 5654 5654 5654 5655 5655 5656 5656 5657 5657 5658 5659 5659 5660 5661 5662 5663 5664 5665 5666 5666 5666 5667 5666
5663 5662 5661 5660 5659 5658 5657 5656 5655 5654 5653 5652 5651 5650 5649 5648 5647 5647 5646 5645 5645 5645 5645 5645 5645 5646 5646 5646 5647 5648 5648 5649 5650 5650 5651 5652 5653 5654 5655 5656 5657 5657 5657 5657
5655 5654 5653 5652 5651 5650 5649 5648 5647 5645 5644 5643 5642 5641 5640 5639 5638 5637 5637 5636 5636 5636 5636 5636 5636 5637 5637 5637 5637 5638 5638 5639 5639 5640 5641 5642 5643 5644 5645 5646 5646 5647 5647 5647
5648 5646 5645 5644 5643 5641 5640 5639 5638 5637 5635 5634 5633 5632 5631 5630 5630 5629 5628 5627 5627 5627 5627 5627 5628 5627 5627 5628 5628 5628 5628 5629 5629 5630 5630 5631 5632 5633 5634 5635 5636 5637 5637 5636
5639 5638 5637 5636 5634 5633 5632 5631 5629 5628 5627 5626 5625 5624 5623 5622 5622 5621 5620 5619 5618 5618 5618 5618 5618 5618 5618 5618 5618 5618 5618 5619 5619 5620 5620 5621 5621 5623 5624 5624 5625 5626 5626 5626
5631 5630 5629 5627 5626 5624 5623 5622 5621 5620 5619 5618 5617 5616 5615 5614 5613 5612 5611 5610 5610 5609 5609 5609 5609 5609 5609 5609 5608 5609 5609 5609 5610 5610 5610 5610 5611 5612 5613 5614 5614 5615 5615 5615
5623 5622 5621 5619 5618 5616 5615 5614 5612 5611 5610 5609 5608 5608 5607 5606 5605 5603 5602 5601 5601 5601 5600 5600 5599 5599 5599 5599 5599 5599 5599 5599 5600 5600 5600 5600 5601 5601 5602 5603 5604 5604 5605 5605
5615 5614 5612 5611 5609 5608 5606 5605 5604 5603 5602 5601 5601 5600 5599 5598 5597 5596 5594 5593 5593 5592 5591 5591 5590 5590 5590 5590 5589 5589 5590 5590 5590 5590 5590 5591 5591 5591 5592 5593 5593 5593 5594 5594
5606 5605 5603 5602 5601 5599 5598 5597 5596 5595 5594 5593 5593 5592 5591 5590 5589 5588 5586 5585 5584 5583 5583 5582 5581 5581 5580 5580 5580 5580 5580 5580 5581 5581 5581 5581 5581 5581 5581 5582 5582 5583 5583 5583
5597 5596 5595 5594 5592 5591 5590 5589 5588 5587 5586 5585 5584 5584 5583 5581 5580 5579 5578 5577 5576 5575 5574 5573 5573 5572 5571 5571 5571 5571 5571 5571 5571 5571 5571 5571 5571 5571 5571 5571 5571 5571 5572 5572
5588 5587 5586 5585 5584 5583 5582 5581 5580 5579 5578 5577 5577 5576 5575 5574 5573 5571 5570 5569 5567 5566 5565 5565 5564 5563 5563 5562 5562 5562 5561 5561 5561 5561 5561 5561 5561 5560 5560 5560 5560 5560 5560 5560
5580 5579 5578 5577 5576 5575 5574 5573 5572 5571 5570 5570 5569 5568 5567 5565 5564 5563 5562 5560 5559 5558 5557 5556 5555 5554 5554 5554 5553 5552 5552 5552 5552 5551 5551 5551 5550 5550 5550 5549 5549 5549 5549 5548
5571 5571 5569 5568 5567 5566 5565 5565 5564 5563 5562 5561 5560 5559 5558 5557 5556 5555 5553 5552 5550 5549 5548 5547 5546 5545 5545 5544 5544 5543 5543 5543 5542 5542 5541 5541 5540 5539 5539 5538 5538 5537 5537 5536
5563 5562 5561 5560 5559 5558 5557 5556 5556 5555 5554 5553 5552 5551 5549 5548 5547 5545 5544 5543 5542 5540 5539 5538 5537 5536 5536 5535 5534 5534 5533 5532 5532 5531 5530 5530 5529 5528 5528 5527 5527 5526 5526 5525